Estación de La Unión Norte
Ultimos registro cada 15 minutos 24
| N° | Estación | Fecha / Hora | Temperatura | Humedad | Lluvia | Velocidad | Dirección | Radiación | Presion |
| 24 | La Unión Norte | 09-05-2026 05:45 | 0,1 | 97,9 | 0 | 0 | 170 | 0,6 | 1026,1 |
| 23 | La Unión Norte | 09-05-2026 05:30 | -0,1 | 97,9 | 0 | 0 | 170 | 0,6 | 1026,2 |
| 22 | La Unión Norte | 09-05-2026 05:15 | -0,1 | 97,7 | 0 | 0 | 170 | 0,6 | 1026 |
| 21 | La Unión Norte | 09-05-2026 05:00 | 0,1 | 97,5 | 0 | 0 | 170 | 0,6 | 1025,9 |
| 20 | La Unión Norte | 09-05-2026 04:45 | 0,5 | 97,6 | 0 | 0 | 170 | 0,6 | 1026,2 |
| 19 | La Unión Norte | 09-05-2026 04:30 | 0,2 | 97,7 | 0 | 0 | 170 | 0,6 | 1026,3 |
| 18 | La Unión Norte | 09-05-2026 04:15 | 0,1 | 97,3 | 0 | 0 | 170 | 0,6 | 1025,9 |
| 17 | La Unión Norte | 09-05-2026 04:00 | 0,6 | 97,6 | 0 | 0 | 170 | 0,6 | 1026,4 |
| 16 | La Unión Norte | 09-05-2026 03:45 | 0,7 | 97,5 | 0 | 0 | 170 | 0,6 | 1026,3 |
| 15 | La Unión Norte | 09-05-2026 03:30 | 0,8 | 97,1 | 0 | 0 | 170 | 0,6 | 1026,6 |
| 14 | La Unión Norte | 09-05-2026 03:15 | 1,1 | 97,1 | 0 | 0 | 170 | 0,6 | 1026,7 |
| 13 | La Unión Norte | 09-05-2026 03:00 | 1,2 | 97,4 | 0 | 0 | 170 | 0,6 | 1026,9 |
| 12 | La Unión Norte | 09-05-2026 02:45 | 1,2 | 96,7 | 0 | 0 | 170 | 0,6 | 1026,9 |
| 11 | La Unión Norte | 09-05-2026 02:30 | 1,4 | 96,8 | 0 | 0 | 170 | 0,6 | 1026,7 |
| 10 | La Unión Norte | 09-05-2026 02:15 | 1,5 | 96,9 | 0 | 0 | 170 | 0,6 | 1026,9 |
| 9 | La Unión Norte | 09-05-2026 02:00 | 1,9 | 96,6 | 0 | 0 | 170 | 0,6 | 1027,1 |
| 8 | La Unión Norte | 09-05-2026 01:45 | 1,9 | 96,4 | 0 | 0 | 170 | 0,6 | 1027 |
| 7 | La Unión Norte | 09-05-2026 01:30 | 2 | 96,3 | 0 | 0 | 170 | 0,6 | 1027 |
| 6 | La Unión Norte | 09-05-2026 01:15 | 2,3 | 96,1 | 0 | 0 | 170 | 0,6 | 1027,1 |
| 5 | La Unión Norte | 09-05-2026 01:00 | 2,2 | 95,7 | 0 | 0 | 170 | 0,6 | 1027 |
| 4 | La Unión Norte | 09-05-2026 00:45 | 2,6 | 95,5 | 0 | 0 | 170 | 0,6 | 1027 |
| 3 | La Unión Norte | 09-05-2026 00:30 | 2,4 | 95,1 | 0 | 0 | 170 | 0,6 | 1026,9 |
| 2 | La Unión Norte | 09-05-2026 00:15 | 2,8 | 95 | 0 | 0 | 170 | 0,6 | 1026,9 |
| 1 | La Unión Norte | 09-05-2026 00:00 | 2,9 | 94,6 | 0 | 0 | 170 | 0,6 | 1026,7 |